Volver al catálogo

STARLINK-3772

ActivoComunicacionesVLEO
NORAD 52290·PAYLOAD·🇺🇸 United States

Lanzado Apr 21, 2022 desde Cape Canaveral Space Force Station

Loading…

Próximos Pases (próximas 24 horas)

TLE

ActualizadoSource: CelesTrak SupGP

Época: Sep 15, 2026, 02:12 UTC

1 52290C 22041AF  26258.09215278  .00044167  00000+0  13067-2 0  2582
2 52290  53.1580 316.7608 0001351  96.3113 160.1970 15.34325923    18

Sigue STARLINK-3772 en tiempo real con AllMySat

Download on the App Store